PEXT (BARD)

Last updated on Fri Aug 22 2025 00:02:05 GMT+0000 (Coordinated Universal Time)

1 64874U 25154F 25232.75888732 .00005153 00000+0 25941-3 0 9995 2 64874 97.4391 298.2267 0001610 230.2930 129.8162 15.17635924 4238

Satellite not in orbit

PEXT (BARD)